This is the latest recevied weather packets stored in our database for station/object KD9IXX-13. If no packets are shown the sender has not sent any weather packets the latest 10 day(s).
| Time | Temp. | Humidity | Pressure | Rain* | Wind** | Luminosity | Snow |
|---|---|---|---|---|---|---|---|
| 1778000102 | 13.33° C | 54% | 1010.8 hPa | 0 mm | - | 592 W/m² | - |
| 1777999801 | 12.78° C | 57% | 1010.6 hPa | 0 mm | - | 605 W/m² | - |
| 1777999502 | 13.33° C | 54% | 1010.9 hPa | 0 mm | - | 584 W/m² | - |
| 1777999202 | 13.89° C | 51% | 1010.7 hPa | 0 mm | - | 582 W/m² | - |
| 1777998902 | 13.33° C | 53% | 1010.9 hPa | 0 mm | - | 661 W/m² | - |
| 1777998602 | 13.33° C | 52% | 1010.8 hPa | 0 mm | - | 576 W/m² | - |
| 1777998302 | 13.33° C | 53% | 1010.7 hPa | 0 mm | - | 780 W/m² | - |
| 1777998002 | 13.33° C | 55% | 1010.4 hPa | 0 mm | - | 737 W/m² | - |
| 1777997702 | 12.78° C | 58% | 1010.7 hPa | 0 mm | - | 696 W/m² | - |
| 1777997402 | 12.78° C | 63% | 1010.5 hPa | 0 mm | - | 423 W/m² | - |
| 1777997102 | 12.22° C | 62% | 1010.5 hPa | 0 mm | - | 395 W/m² | - |
| 1777996801 | 12.22° C | 67% | 1010.8 hPa | 0 mm | - | 671 W/m² | - |
| 1777996502 | 12.22° C | 64% | 1010.6 hPa | 0 mm | - | 442 W/m² | - |
| 1777996202 | 11.11° C | 66% | 1010.9 hPa | 0 mm | - | 760 W/m² | - |
| 1777995902 | 11.67° C | 66% | 1010.7 hPa | 0 mm | - | 789 W/m² | - |
| 1777995602 | 11.67° C | 65% | 1010.5 hPa | 0 mm | - | 744 W/m² | - |
| 1777995302 | 11.67° C | 69% | 1010.5 hPa | 0 mm | - | 329 W/m² | - |
| 1777995002 | 11.11° C | 68% | 1010.7 hPa | 0 mm | - | 757 W/m² | - |
| 1777994702 | 10.56° C | 74% | 1010.5 hPa | 0 mm | - | 756 W/m² | - |
| 1777994402 | 11.11° C | 76% | 1010.5 hPa | 0 mm | - | 786 W/m² | - |
| 1777994102 | 10.56° C | 81% | 1010.6 hPa | 0 mm | - | 724 W/m² | - |
| 1777993802 | 10° C | 82% | 1010.5 hPa | 0 mm | - | 690 W/m² | - |
| 1777993502 | 10° C | 85% | 1010.6 hPa | 0 mm | - | 893 W/m² | - |
| 1777993201 | 9.44° C | 85% | 1010.8 hPa | 0 mm | - | 760 W/m² | - |
| 1777992902 | 8.89° C | 88% | 1010.9 hPa | 0 mm | - | 803 W/m² | - |
* Rain latest hour (hover to see other rain measurements)
** Current wind speed in m/s (hover to see current wind gust speed)